This demonstration page uses our WeatherBlox Daily Observations layout. Learn more.

Left ArrowRight Arrow

40.92945, -100.16068

Hourly Observations for December 13, 2020

Temp ( °F °C ) Dew Point ( °F °C ) Humidity (%) Winds ( mph kmh ) Pressure ( in mb ) Visibility ( mi km ) Precip ( " mm )
12:15 am 00:15 Mostly Cloudy 21 -6.2 19 -7.2 93 93 Calm 30.33 1027 7 11.26538 0 0
12:35 am 00:35 Cloudy 21 -6 19 -7 93 93 W 5 7 30.34 1027 7 11.26538 0 0
12:55 am 00:55 Cloudy 22 -5.7 20 -6.6 93 93 WNW 3 6 30.34 1027 7 11.26538 0 0
1:15 am 01:15 Cloudy 22 -5.8 20 -6.8 93 93 W 3 6 30.34 1027 7 11.26538 0 0
1:35 am 01:35 Partly Cloudy 21 -6.1 19 -7.1 93 93 W 5 7 30.34 1027 7 11.26538 0 0
1:55 am 01:55 Mostly Cloudy 21 -6 19 -7 93 93 WNW 6 9 30.34 1027 10 16.0934 0 0
2:15 am 02:15 Mostly Cloudy 21 -6 19 -7 93 93 NW 3 6 30.34 1027 10 16.0934 0 0
2:35 am 02:35 Mostly Cloudy 21 -6 19 -7 93 93 Calm 30.34 1027 7 11.26538 0 0
2:55 am 02:55 Mostly Cloudy 21 -6.3 19 -7.4 92 92 Calm 30.34 1027 7 11.26538 0 0
3:15 am 03:15 Partly Cloudy with Mist and Fog 20 -6.6 19 -7.5 93 93 Calm 30.35 1028 4 6.43736 0 0
3:35 am 03:35 Cloudy 21 -6.2 19 -7.2 93 93 NW 3 6 30.34 1027 7 11.26538 0 0
3:55 am 03:55 Cloudy 19 -7.5 16 -8.7 91 91 Calm 30.35 1028 7 11.26538 0 0
4:15 am 04:15 Cloudy 19 -7 18 -8 93 93 Calm 30.34 1027 7 11.26538 0 0
4:35 am 04:35 Cloudy with Mist and Fog 17 -8.2 15 -9.5 90 90 Calm 30.35 1028 4 6.43736 0 0
4:55 am 04:55 Cloudy with Freezing Fog 15 -9.5 13 -10.6 92 92 SW 3 6 30.37 1028 0.25 0.402335 0 0
5:15 am 05:15 Cloudy with Freezing Fog 15 -9.3 13 -10.5 91 91 SW 3 6 30.37 1029 0.5 0.80467 0 0
5:35 am 05:35 Cloudy with Mist and Fog 13 -10.3 11 -11.6 90 90 Calm 30.38 1029 0.75 1.207005 0 0
5:55 am 05:55 Partly Cloudy with Mist and Fog 13 -10.5 11 -11.9 90 90 Calm 30.4 1029 5 8.0467 0 0
6:15 am 06:15 Mostly Cloudy with Mist and Fog 13 -10.8 10 -12.3 89 89 Calm 30.4 1029 1 1.60934 0 0
6:35 am 06:35 Clear with Mist and Fog 12 -11.3 9 -13 87 87 Calm 30.42 1030 4 6.43736 0 0
6:55 am 06:55 Clear with Mist and Fog 12 -11.3 9 -12.9 88 88 Calm 30.43 1030 5 8.0467 0 0
7:15 am 07:15 Clear 12 -11.2 9 -12.8 88 88 WNW 7 11 30.43 1031 7 11.26538 0 0
7:35 am 07:35 Clear 12 -11.2 9 -12.8 88 88 WNW 7 11 30.43 1031 10 16.0934 0 0
7:55 am 07:55 Clear 13 -10.5 10 -12 89 89 WNW 9 15 30.44 1031 10 16.0934 0 0
8:15 am 08:15 Sunny 15 -9.7 12 -11 90 90 WNW 10 17 30.43 1030 10 16.0934 0 0
8:35 am 08:35 Sunny 15 -9.3 13 -10.6 90 90 WNW 10 17 30.43 1031 10 16.0934 0 0
8:55 am 08:55 Sunny 17 -8.3 15 -9.5 91 91 WNW 12 19 30.43 1031 10 16.0934 0 0
9:15 am 09:15 Sunny 18 -7.6 16 -8.8 91 91 WNW 13 20 30.43 1030 10 16.0934 0 0
9:35 am 09:35 Sunny 20 -6.5 18 -7.6 92 92 WNW 12 19 30.42 1030 10 16.0934 0 0
9:55 am 09:55 Sunny 22 -5.7 20 -6.7 93 93 WNW 12 19 30.42 1030 10 16.0934 0 0
10:15 am 10:15 Sunny 23 -5 21 -6.1 92 92 WNW 9 15 30.42 1030 10 16.0934 0 0
10:35 am 10:35 Sunny 25 -4.1 21 -5.9 87 87 NW 10 17 30.41 1030 10 16.0934 0 0
10:55 am 10:55 Sunny 26 -3.1 21 -6 81 81 NW 9 15 30.4 1029 10 16.0934 0 0
11:15 am 11:15 Partly Cloudy 29 -1.5 22 -5.6 74 74 NNW 13 20 30.38 1029 10 16.0934 0 0
11:35 am 11:35 Partly Cloudy 30 -1 23 -5.2 73 73 NNW 12 19 30.38 1029 10 16.0934 0 0
11:55 am 11:55 Partly Cloudy 30 -0.9 22 -5.6 71 71 NNW 14 22 30.37 1028 10 16.0934 0 0
12:15 pm 12:15 Partly Cloudy 31 -0.6 22 -5.3 71 71 NNW 10 17 30.35 1028 10 16.0934 0 0
12:35 pm 12:35 Partly Cloudy 31 -0.3 23 -5 71 71 NW 12 19 30.34 1027 10 16.0934 0 0
12:55 pm 12:55 Mostly Cloudy 32 0 23 -5 69 69 NNW 13 20 30.33 1027 10 16.0934 0 0
1:15 pm 13:15 Partly Cloudy 32 0 22 -5.4 67 67 NNW 14 22 30.31 1026 10 16.0934 0 0
1:35 pm 13:35 Sunny 32 0 22 -5.3 68 68 NNW 13 20 30.3 1026 10 16.0934 0 0
1:55 pm 13:55 Sunny 33 0.3 23 -5.2 67 67 NW 10 17 30.3 1026 10 16.0934 0 0
2:15 pm 14:15 Sunny 33 0.4 23 -5.1 67 67 NNW 10 17 30.29 1026 10 16.0934 0 0
2:35 pm 14:35 Sunny 33 0.7 23 -5 66 66 NNW 12 19 30.29 1026 10 16.0934 0 0
2:55 pm 14:55 Sunny 34 1.1 22 -5.3 63 63 NW 10 17 30.3 1026 10 16.0934 0 0
3:15 pm 15:15 Sunny 35 1.5 22 -5.5 60 60 NW 14 22 30.3 1026 10 16.0934 0 0
3:35 pm 15:35 Sunny 35 1.6 22 -5.8 58 58 NW 10 17 30.29 1026 10 16.0934 0 0
3:55 pm 15:55 Sunny 35 1.7 21 -6 57 57 WNW 10 17 30.29 1026 10 16.0934 0 0
4:15 pm 16:15 Sunny 35 1.5 22 -5.8 59 59 NW 6 9 30.28 1025 10 16.0934 0 0
4:35 pm 16:35 Sunny 34 0.9 23 -5 65 65 NW 6 9 30.3 1026 10 16.0934 0 0
4:55 pm 16:55 Sunny 32 0 22 -5.5 67 67 WNW 6 9 30.31 1026 10 16.0934 0 0
5:15 pm 17:15 Clear 30 -1.3 22 -5.8 72 72 W 6 9 30.32 1027 10 16.0934 0 0
5:35 pm 17:35 Clear 26 -3.2 20 -6.5 78 78 WSW 6 9 30.34 1027 10 16.0934 0 0
5:55 pm 17:55 Clear 25 -3.7 20 -6.9 79 79 WSW 6 9 30.35 1028 10 16.0934 0 0
6:15 pm 18:15 Clear 24 -4.5 18 -7.6 79 79 W 8 13 30.36 1028 10 16.0934 0 0
6:35 pm 18:35 Clear 24 -4.3 18 -7.6 78 78 WSW 7 11 30.36 1028 10 16.0934 0 0
6:55 pm 18:55 Clear 23 -4.8 18 -7.8 80 80 Calm 30.36 1028 10 16.0934 0 0
7:15 pm 19:15 Clear 23 -4.8 18 -8 79 79 W 3 6 30.37 1028 10 16.0934 0 0
7:35 pm 19:35 Clear 20 -6.4 17 -8.6 85 85 N 3 6 30.37 1029 10 16.0934 0 0
7:55 pm 19:55 Clear 20 -6.9 16 -8.7 87 87 N 5 7 30.39 1029 10 16.0934 0 0
8:15 pm 20:15 Clear 20 -6.7 16 -8.8 85 85 NNE 3 6 30.39 1029 10 16.0934 0 0
8:35 pm 20:35 Clear 19 -7.1 16 -9 86 86 Calm 30.39 1029 10 16.0934 0 0
8:55 pm 20:55 Clear 18 -7.8 15 -9.6 87 87 Calm 30.39 1029 10 16.0934 0 0
9:15 pm 21:15 Clear 19 -7.3 15 -9.3 86 86 SE 3 6 30.38 1029 10 16.0934 0 0
9:35 pm 21:35 Clear 15 -9.5 12 -11.2 88 88 SW 8 13 30.42 1030 10 16.0934 0 0
9:55 pm 21:55 Clear 17 -8.1 14 -10 86 86 WSW 6 9 30.4 1030 10 16.0934 0 0
10:15 pm 22:15 Clear 17 -8.1 14 -10.1 86 86 WSW 3 6 30.41 1030 10 16.0934 0 0
10:35 pm 22:35 Clear 17 -8.2 14 -10.1 86 86 Calm 30.42 1030 10 16.0934 0 0
10:55 pm 22:55 Clear 16 -8.7 13 -10.4 88 88 Calm 30.43 1030 10 16.0934 0 0
11:15 pm 23:15 Clear 15 -9.6 12 -11.2 88 88 Calm 30.42 1030 10 16.0934 0 0
11:35 pm 23:35 Clear 14 -10.1 11 -11.7 88 88 Calm 30.42 1030 10 16.0934 0 0
11:55 pm 23:55 Clear 14 -10.2 11 -11.9 88 88 Calm 30.42 1030 10 16.0934 0 0

Powered by AerisWeather